Cahokia, IL

8:10 PM CDT on May 25, 2018 (GMT -0500)
Saint Louis Downtown

Weather History for KCPS - March, 2014

Change the Weather History Date:

Monday, March 10, 2014

  Actual Average Record
Temperature  
Mean Temperature 60 °F -  
Max Temperature 78 °F 63 °F 86 °F (1955)
Min Temperature 43 °F 41 °F 14 °F (1948)
Degree Days  
Heating Degree Days 4    
Growing Degree Days 10 (Base 50)    
Moisture  
Dew Point 35 °F    
Average Humidity 48    
Maximum Humidity 79    
Minimum Humidity 17    
Precipitation  
Precipitation 0.00 in - - ()
Sea Level Pressure  
Sea Level Pressure 29.83 in    
Wind  
Wind Speed 6 mph (SW)    
Max Wind Speed 13 mph    
Max Gust Speed 22 mph    
Visibility 10 miles    
Events      
Averages and records for this station are not official NWS values.
T = Trace of Precipitation, MM = Missing Value Source: NWS Daily Summary

Daily Weather History Graph

Daily Weather History Graph

Search for Another Location

Airport or City:

Astronomy

Mar. 10, 2014 Rise Set
Actual Time 7:19 AM CDT 7:02 PM CDT
Civil Twilight 6:53 AM CDT 7:29 PM CDT
Nautical Twilight 6:22 AM CDT 8:00 PM CDT
Astronomical Twilight 5:51 AM CDT 8:31 PM CDT
Moon 1:49 PM CDT (3/10) 3:28 AM CDT (3/10)
Length of Visible Light 12h 36m
Length of Day
11h 43m
Waxing Gibbous, 70% of the Moon is Illuminated
Mar 10
Waxing Gibbous
Mar 16
Full
Mar 23
Last Quarter
Mar 30
New
Apr 7
First Quarter

Hourly Weather History & Observations

Time (CDT) Temp. Windchill Dew Point Humidity Pressure Visibility Wind Dir Wind Speed Gust Speed Precip Events Conditions
12:53 AM 44.1 °F - 32.0 °F 63% 30.01 in 10.0 mi Calm Calm - N/A   Clear
1:53 AM 43.0 °F 39.5 °F 33.1 °F 68% 30.00 in 10.0 mi South 5.8 mph - N/A   Clear
2:53 AM 46.0 °F 41.9 °F 36.0 °F 68% 29.99 in 10.0 mi SSW 8.1 mph - N/A   Clear
3:53 AM 45.0 °F 41.8 °F 37.0 °F 74% 29.96 in 10.0 mi SSW 5.8 mph - N/A   Clear
4:53 AM 44.1 °F 40.8 °F 37.9 °F 79% 29.93 in 10.0 mi SW 5.8 mph - N/A   Clear
5:53 AM 44.1 °F 40.1 °F 37.9 °F 79% 29.92 in 9.0 mi SSW 6.9 mph - N/A   Clear
6:53 AM 44.1 °F 40.1 °F 37.9 °F 79% 29.91 in 9.0 mi SW 6.9 mph - N/A   Clear
7:53 AM 44.1 °F 40.8 °F 37.9 °F 79% 29.92 in 8.0 mi SSW 5.8 mph - N/A   Clear
8:53 AM 48.0 °F - 39.0 °F 71% 29.91 in 10.0 mi SW 8.1 mph - N/A   Clear
9:53 AM 53.1 °F - 39.0 °F 59% 29.90 in 10.0 mi SW 8.1 mph - N/A   Clear
10:53 AM 59.0 °F - 37.0 °F 44% 29.88 in 10.0 mi WSW 10.4 mph - N/A   Clear
11:53 AM 64.0 °F - 37.0 °F 37% 29.85 in 10.0 mi WSW 12.7 mph 20.7 mph N/A   Clear
12:53 PM 68.0 °F - 34.0 °F 28% 29.82 in 10.0 mi WSW 12.7 mph 21.9 mph N/A   Clear
1:53 PM 72.0 °F - 35.1 °F 26% 29.78 in 10.0 mi SW 10.4 mph - N/A   Clear
2:53 PM 75.0 °F - 33.1 °F 22% 29.74 in 10.0 mi SW 10.4 mph 18.4 mph N/A   Clear
3:53 PM 77.0 °F - 30.9 °F 19% 29.72 in 10.0 mi SW 8.1 mph - N/A   Clear
4:53 PM 78.1 °F - 30.0 °F 17% 29.70 in 10.0 mi SW 9.2 mph 16.1 mph N/A   Clear
5:53 PM 77.0 °F - 30.0 °F 18% 29.70 in 10.0 mi SW 8.1 mph - N/A   Clear
6:53 PM 73.0 °F - 28.9 °F 20% 29.70 in 10.0 mi SSW 4.6 mph - N/A   Clear
7:53 PM 69.1 °F - 32.0 °F 25% 29.71 in 10.0 mi SSW 3.5 mph - N/A   Clear
8:53 PM 64.0 °F - 33.1 °F 31% 29.73 in 10.0 mi SW 5.8 mph - N/A   Clear
9:53 PM 55.9 °F - 35.1 °F 45% 29.73 in 10.0 mi South 3.5 mph - N/A   Clear
10:53 PM 54.0 °F - 35.1 °F 49% 29.73 in 10.0 mi SSE 6.9 mph - N/A   Clear
11:53 PM 57.9 °F - 34.0 °F 41% 29.71 in 10.0 mi SSW 6.9 mph - N/A   Clear